Location: Bay Shore Mobile Home Park
(38.5762°N, 75.0841°W)
Time: 12:22:16
(UTC+00:00)

Envisat - Pass Details

Date: 07 October 2024
Orbit: 761 x 763 km, 98.3° (Epoch: 06 November)

Event Time Altitude Azimuth Distance (km) Brightness Sun altitude
Rises 08:36:23 0° 6° (N) 3,233 6.5 -29.0°
Reaches altitude 10° 08:38:45 10° 1° (N) 2,303 5.6 -28.6°
Enters shadow 08:40:56 25° 349° (N) 1,517 4.5 -28.2°
